Aggie Opener

September 4, 2026
|
Dale Watts '71 XC Course College Station, TX 77843
HOST: Texas A&M   DIRECTOR: Nate Collins   TIMING: Flash Results, Inc.   REFEREE: George Young   STARTER: Raymond Pierre  

Men 5k CC Team Results (5k)
Top↑

PL Team Total Time Avg. Time Score 1 2 3 4 5 6 7
1 Texas A&M 1:17:05 15:25 33 1 3 7 8 14 19  
2 Houston 1:17:37 15:31 38 2 4 6 9 17 20 22
3 Texas A&M-CC 1:19:41 15:56 77 5 11 12 24 25 26 28
4 Baylor 1:20:31 16:06 97 10 13 15 29 30    
5 Houston Christian 1:22:25 16:29 118 16 18 21 27 36 37  
6 Texas Southern 1:23:50 16:46 153 23 31 32 33 34 35  

Men 5k CC Individual Results (5k)
Top↑

PL NAME YEAR TEAM Avg. Mile TIME SCORE
1 Jack Johnston SR-4 Texas A&M 4:45.9 14:48.3 1
2 Henok Hagos JR-3 Houston 4:53.5 15:12.1 2
3 Gavin Chapa SO-2 Texas A&M 4:55.1 15:16.8 3
4 Jack Boyd SR-4 Houston 4:56.2 15:20.4 4
5 Diego Canto JR-3 Texas A&M-CC 4:56.6 15:21.6 5
6 David Soto SR-4 Houston 4:58.2 15:26.5 6
7 Hunter Jackson SR-4 Texas A&M 5:00.2 15:32.8 7
8 Aiden Gonzalez-Rodiles SR-4 Texas A&M 5:00.9 15:35.0 8
9 Caden Thurman JR-3 Houston 5:01.0 15:35.3 9
10 Jack Sterrett JR-3 Baylor 5:03.6 15:43.5 10
11 Dillon Smith JR-3 Texas A&M-CC 5:05.4 15:48.9 11
12 Andrew Rivas JR-3 Texas A&M-CC 5:05.8 15:50.1 12
13 Nolan Keenan SR-4 Baylor 5:05.8 15:50.1 13
14 Noah Willows SR-4 Texas A&M 5:06.8 15:53.2 14
15 Straton Miller SR-4 Baylor 5:07.0 15:53.9 15
16 Grant Currier SO-2 Houston Christian 5:07.9 15:56.7 16
17 Remay Abraha JR-3 Houston 5:10.2 16:03.8 17
18 Colby Kurtz SR-4 Houston Christian 5:10.7 16:05.4 18
19 Zack Munger JR-3 Texas A&M 5:12.0 16:09.6 19
20 Zade Kayyali JR-3 Houston 5:12.8 16:12.0 20
21 Gavin Almaguer SO-2 Houston Christian 5:12.9 16:12.3 21
22 Lincoln Wright FR-1 Houston 5:13.2 16:13.0 22
23 Jaxson Artisst JR-3 Texas Southern 5:14.0 16:15.5 23
24 Noah Fernandez JR-3 Texas A&M-CC 5:14.8 16:18.0 24
25 Dominic Kiptum JR-3 Texas A&M-CC 5:16.3 16:22.8 25
26 Phillip Jensen e Castro JR-3 Texas A&M-CC 5:17.5 16:26.4 26
27 John Henry Crapuchettes FR-1 Houston Christian 5:18.7 16:30.3 27
28 Gary Custer SO-2 Texas A&M-CC 5:19.0 16:31.2 28
29 Ben Archer SR-4 Baylor 5:19.1 16:31.4 29
30 Carson Brown SO-2 Texas A&M-CC 5:19.5 16:32.6
31 Caden Biltz JR-3 Baylor 5:19.5 16:32.8 30
32 Leonardo Campos FR-1 Texas Southern 5:21.7 16:39.6 31
33 Coulson Boyd FR-1 Texas A&M-CC 5:22.5 16:42.2
34 Cooper Grady FR-1 Texas A&M-CC 5:22.6 16:42.4
35 Brock Glasscock 2027 Unattached 5:24.1 16:46.9
36 Jeremiah Barrera SR-4 Texas Southern 5:24.6 16:48.5 32
37 Aaron Miranda FR-1 Texas A&M-CC 5:26.3 16:53.8
38 Aden Ortega FR-1 Texas Southern 5:28.6 17:01.0 33
39 Roberto Rodriguez JR-3 Texas Southern 5:30.2 17:06.0 34
40 Manuel Garza JR-3 Texas Southern 5:31.0 17:08.3 35
41 Wyatt Johnson 2028 Unattached 5:40.4 17:37.6
42 Zyler Garnica FR-1 Houston Christian 5:41.6 17:41.3 36
43 Justin Kurtz FR-1 Houston Christian 5:45.9 17:54.9 37

Women 2 Mile CC Team Results (2 Mile)
Top↑

PL Team Total Time Avg. Time Score 1 2 3 4 5 6 7
1 Texas A&M 55:07 11:01 34 2 3 4 11 14 17 18
2 Houston 55:34 11:06 42 5 6 8 10 13 16 21
3 Baylor 57:38 11:31 88 9 12 19 23 25 28  
4 Texas A&M-CC 58:15 11:39 93 1 15 20 27 30 33  
5 Houston Christian 1:00:55 12:11 129 7 24 29 34 35 36 38
6 Texas Southern 1:02:18 12:27 148 22 26 31 32 37 39  

Women 2 Mile CC Individual Results (2 Mile)
Top↑

PL NAME YEAR TEAM Avg. Mile TIME SCORE
1 Caroline Yegon FR-1 Texas A&M-CC 5:23.4 10:46.8 1
2 Laney Barnes FR-1 Texas A&M 5:24.4 10:48.8 2
3 Alexandra Fox SO-2 Texas A&M 5:24.7 10:49.3 3
4 Megan Roberts JR-3 Texas A&M 5:25.7 10:51.4 4
5 Cadence Patterson JR-3 Houston 5:25.9 10:51.8 5
6 Addison Hite JR-3 Houston 5:28.7 10:57.4 6
7 Ariadna Navarro FR-1 Houston Christian 5:31.0 11:01.9 7
8 Liliana Campos JR-3 Houston 5:35.7 11:11.3 8
9 Ella Perry JR-3 Baylor 5:36.6 11:13.2 9
10 Ann Claire Cop JR-3 Houston 5:37.9 11:15.7 10
11 Emma Little SR-4 Texas A&M 5:38.6 11:17.2 11
12 Eva Jacobsen SO-2 Baylor 5:38.9 11:17.7 12
13 Julia Shimel JR-3 Houston 5:39.4 11:18.7 13
14 Kennady Fontenot SR-4 Texas A&M 5:40.5 11:21.0 14
15 Embla Hreimsdottir JR-3 Texas A&M-CC 5:44.0 11:27.9 15
16 Casey Scherpereel FR-1 Houston 5:44.8 11:29.6 16
17 Ava Cole SO-2 Texas A&M 5:45.9 11:31.7 17
18 Penelope Gracey SO-2 Texas A&M 5:46.2 11:32.4 18
19 Mackenize Browne SR-4 Baylor 5:46.3 11:32.6 19
20 Neele Heyne JR-3 Texas A&M-CC 5:46.5 11:32.9 20
21 Sophia Nguyen SO-2 Houston 5:47.4 11:34.8 21
22 Alyvia Brown SR-4 Texas Southern 5:47.6 11:35.2 22
23 Maddie Peters SO-2 Texas A&M 5:50.4 11:40.7
24 Brynleigh McFarlin FR-1 Houston 5:52.2 11:44.4
25 Jenna Jacobsen FR-1 Baylor 5:53.8 11:47.5 23
26 Noa Sancho FR-1 Houston Christian 5:53.8 11:47.5 24
27 Rickeisha Simms SO-2 Baylor 5:54.1 11:48.2 25
28 Katherine Canchola SO-2 Texas Southern 5:58.3 11:56.5 26
29 Presley Andras FR-1 Houston 6:00.3 12:00.6
30 Abigail Kelley FR-1 Texas A&M-CC 6:00.6 12:01.2 27
31 Olivia Brillhart SO-2 Houston 6:00.7 12:01.4
32 Lucy Benton JR-3 Baylor 6:04.8 12:09.6 28
33 Jazlynn Estrada SR-4 Houston Christian 6:12.9 12:25.8 29
34 Faith Ramos JR-3 Texas A&M-CC 6:13.5 12:27.0 30
35 Stacy Guerrero SO-2 Texas Southern 6:14.4 12:28.8 31
36 McKenna Duty JR-3 Texas Southern 6:15.2 12:30.4 32
37 Brooklyn Albert FR-1 Texas A&M-CC 6:17.5 12:35.0 33
38 Tori Pace FR-1 Houston Christian 6:19.9 12:39.7 34
39 MJ Novelli SO-2 Houston 6:20.4 12:40.7
40 Kallie Huck SO-2 Houston 6:20.6 12:41.1
41 Cara Gary JR-3 Houston Christian 6:30.6 13:01.2 35
42 Noelle Huijser JR-3 Houston Christian 6:39.0 13:18.0 36
43 Ayren Lightfoot SO-2 Houston 6:52.1 13:44.1
44 Kamara Bradley SO-2 Texas Southern 6:53.7 13:47.4 37
45 Annabelle Zaraket FR-1 Houston Christian 6:54.5 13:48.9 38
46 Emilee Schneider JR-3 Houston Christian 7:10.7 14:21.4
47 Jessica Williams SR-4 Texas Southern 7:20.2 14:40.3 39